Year,Month,Day,Hour,Minute,Value (Times are PST for temperature in C)
2014,08,10,09,43,17.60
2014,08,10,09,44,17.70
2014,08,10,09,45,17.80
2014,08,10,09,46,17.90
2014,08,10,09,47,17.90
2014,08,10,09,48,18.00
2014,08,10,09,49,18.10
2014,08,10,09,50,18.20
2014,08,10,09,51,18.20
2014,08,10,09,52,18.40
2014,08,10,09,53,18.40
2014,08,10,09,54,18.50
2014,08,10,09,55,18.60
2014,08,10,09,56,18.70
2014,08,10,09,57,18.90
2014,08,10,09,58,18.90
2014,08,10,09,59,18.90
2014,08,10,10,00,18.90
2014,08,10,10,01,18.90
2014,08,10,10,02,18.90
2014,08,10,10,03,18.90
2014,08,10,10,04,18.90
2014,08,10,10,05,19.00
2014,08,10,10,06,19.10
2014,08,10,10,07,19.30
2014,08,10,10,08,19.40
2014,08,10,10,09,19.50
2014,08,10,10,10,19.60
2014,08,10,10,11,19.70
2014,08,10,10,12,19.80
2014,08,10,10,13,19.90
2014,08,10,10,14,20.00
2014,08,10,10,15,20.10
2014,08,10,10,16,20.20
2014,08,10,10,17,20.20
2014,08,10,10,18,20.20
2014,08,10,10,19,20.20
2014,08,10,10,20,20.20
2014,08,10,10,21,20.20
2014,08,10,10,22,20.20
2014,08,10,10,23,20.20
2014,08,10,10,24,20.20
2014,08,10,10,25,20.20
2014,08,10,10,26,20.20
2014,08,10,10,27,20.20
2014,08,10,10,28,20.20
2014,08,10,10,29,20.20
2014,08,10,10,30,20.20
2014,08,10,10,31,20.20
2014,08,10,10,32,20.20
2014,08,10,10,33,20.30
2014,08,10,10,34,20.20
2014,08,10,10,35,20.20
2014,08,10,10,36,20.20
2014,08,10,10,37,20.20
2014,08,10,10,38,20.20
2014,08,10,10,39,20.40
2014,08,10,10,40,20.50
2014,08,10,10,41,20.50
2014,08,10,10,42,20.70
2014,08,10,10,43,20.80
2014,08,10,10,44,20.80
2014,08,10,10,45,20.80
2014,08,10,10,46,20.70
2014,08,10,10,47,20.60
2014,08,10,10,48,20.50
2014,08,10,10,49,20.40
2014,08,10,10,50,20.40
2014,08,10,10,51,20.40
2014,08,10,10,52,20.40
2014,08,10,10,53,20.40
2014,08,10,10,54,20.40
2014,08,10,10,55,20.30
2014,08,10,10,56,20.30
2014,08,10,10,57,20.20
2014,08,10,10,58,20.20
2014,08,10,10,59,20.20
2014,08,10,11,00,20.40
2014,08,10,11,01,20.40
2014,08,10,11,02,20.40
2014,08,10,11,03,20.50
2014,08,10,11,04,20.70
2014,08,10,11,05,20.70
2014,08,10,11,06,20.80
2014,08,10,11,07,20.80
2014,08,10,11,08,20.80
2014,08,10,11,09,20.90
2014,08,10,11,10,21.00
2014,08,10,11,11,21.00
2014,08,10,11,12,21.00
2014,08,10,11,13,21.10
2014,08,10,11,14,21.10
2014,08,10,11,15,21.10
2014,08,10,11,16,21.10
2014,08,10,11,17,21.10
2014,08,10,11,18,21.10
2014,08,10,11,19,21.00
2014,08,10,11,20,21.10
2014,08,10,11,21,21.20
2014,08,10,11,22,21.20
2014,08,10,11,23,21.30
2014,08,10,11,24,21.30
2014,08,10,11,25,21.30
2014,08,10,11,26,21.20
2014,08,10,11,27,21.10
2014,08,10,11,28,21.10
2014,08,10,11,29,21.00
2014,08,10,11,30,20.80
2014,08,10,11,31,20.70
2014,08,10,11,32,20.60
2014,08,10,11,33,20.50
2014,08,10,11,34,20.40
2014,08,10,11,35,20.40
2014,08,10,11,36,20.30
2014,08,10,11,37,20.20
2014,08,10,11,38,20.20
2014,08,10,11,39,20.20
2014,08,10,11,40,20.20
2014,08,10,11,41,20.20
2014,08,10,11,42,20.30
2014,08,10,11,43,20.30
2014,08,10,11,44,20.40
2014,08,10,11,45,20.50
2014,08,10,11,46,20.50
2014,08,10,11,47,20.60
2014,08,10,11,48,20.70
2014,08,10,11,49,20.70
2014,08,10,11,50,20.80
2014,08,10,11,51,20.80
2014,08,10,11,52,20.80
2014,08,10,11,53,20.70
2014,08,10,11,54,20.70
2014,08,10,11,55,20.70
2014,08,10,11,56,20.80
2014,08,10,11,57,20.80
2014,08,10,11,58,20.90
2014,08,10,11,59,21.00
2014,08,10,12,00,21.10
2014,08,10,12,01,21.20
2014,08,10,12,02,21.20
2014,08,10,12,03,21.20
2014,08,10,12,04,21.30
2014,08,10,12,05,21.30
2014,08,10,12,06,21.40
2014,08,10,12,07,21.50
2014,08,10,12,08,21.60
2014,08,10,12,09,21.70
2014,08,10,12,10,21.70
2014,08,10,12,11,21.80
2014,08,10,12,12,21.90
2014,08,10,12,13,22.00
2014,08,10,12,14,22.10
2014,08,10,12,15,22.00
2014,08,10,12,16,22.10
2014,08,10,12,17,22.20
2014,08,10,12,18,22.20
2014,08,10,12,19,22.30
2014,08,10,12,20,22.30
2014,08,10,12,21,22.30
2014,08,10,12,22,22.40
2014,08,10,12,23,22.50
2014,08,10,12,24,22.70
2014,08,10,12,25,22.90
2014,08,10,12,26,22.90
2014,08,10,12,27,23.10
2014,08,10,12,28,23.10
2014,08,10,12,29,23.10
2014,08,10,12,30,23.00
2014,08,10,12,31,22.90
2014,08,10,12,32,22.90
2014,08,10,12,33,22.90
2014,08,10,12,34,22.90
2014,08,10,12,35,22.90
2014,08,10,12,36,22.90
2014,08,10,12,37,23.10
2014,08,10,12,38,23.20
2014,08,10,12,39,23.20
2014,08,10,12,40,23.20
2014,08,10,12,41,23.20
2014,08,10,12,42,23.30
2014,08,10,12,43,23.30
2014,08,10,12,44,23.30
2014,08,10,12,45,23.40
2014,08,10,12,46,23.40
2014,08,10,12,47,23.40
2014,08,10,12,48,23.50
2014,08,10,12,49,23.60
2014,08,10,12,50,23.60
2014,08,10,12,51,23.60
2014,08,10,12,52,23.60
2014,08,10,12,53,23.60
2014,08,10,12,54,23.50
2014,08,10,12,55,23.40
2014,08,10,12,56,23.30
2014,08,10,12,57,23.20
2014,08,10,12,58,23.20
2014,08,10,12,59,23.20
2014,08,10,13,00,23.10
2014,08,10,13,01,23.00
2014,08,10,13,02,22.90
2014,08,10,13,03,22.90
2014,08,10,13,04,22.90
2014,08,10,13,05,22.90
2014,08,10,13,06,22.90
2014,08,10,13,07,22.80
2014,08,10,13,08,22.80
2014,08,10,13,09,22.80
2014,08,10,13,10,22.80
2014,08,10,13,11,22.80
2014,08,10,13,12,22.80
2014,08,10,13,13,22.80
2014,08,10,13,14,22.90
2014,08,10,13,15,22.90
2014,08,10,13,16,23.00
2014,08,10,13,17,23.10
2014,08,10,13,18,23.20
2014,08,10,13,19,23.20
2014,08,10,13,20,23.20
2014,08,10,13,21,23.30
2014,08,10,13,22,23.30
2014,08,10,13,23,23.30
2014,08,10,13,24,23.30
2014,08,10,13,25,23.30
2014,08,10,13,26,23.30
2014,08,10,13,27,23.40
2014,08,10,13,28,23.40
2014,08,10,13,29,23.60
2014,08,10,13,30,23.60
2014,08,10,13,31,23.50
2014,08,10,13,32,23.50
2014,08,10,13,33,23.40
2014,08,10,13,34,23.50
2014,08,10,13,35,23.60
2014,08,10,13,36,23.70
2014,08,10,13,37,23.70
2014,08,10,13,38,23.70
2014,08,10,13,39,23.60
2014,08,10,13,40,23.30
2014,08,10,13,41,23.20
2014,08,10,13,42,23.30
2014,08,10,13,43,23.30
2014,08,10,13,44,23.40
2014,08,10,13,45,23.40
2014,08,10,13,46,23.30
2014,08,10,13,47,23.30
2014,08,10,13,48,23.30
2014,08,10,13,49,23.30
2014,08,10,13,50,23.30
2014,08,10,13,51,23.30
2014,08,10,13,52,23.40
2014,08,10,13,53,23.60
2014,08,10,13,54,23.60
2014,08,10,13,55,23.70
2014,08,10,13,56,23.70
2014,08,10,13,57,23.70
2014,08,10,13,58,23.70
2014,08,10,13,59,23.70
2014,08,10,14,00,23.70
2014,08,10,14,01,23.70
2014,08,10,14,02,23.80
2014,08,10,14,03,23.90
2014,08,10,14,04,23.80
2014,08,10,14,05,23.80
2014,08,10,14,06,23.80
2014,08,10,14,07,23.70
2014,08,10,14,08,23.70
2014,08,10,14,09,23.70
2014,08,10,14,10,23.80
2014,08,10,14,11,23.90
2014,08,10,14,12,24.00
2014,08,10,14,13,24.10
2014,08,10,14,14,24.10
2014,08,10,14,15,24.10
2014,08,10,14,16,24.30
2014,08,10,14,17,24.30
2014,08,10,14,18,24.30
2014,08,10,14,19,24.30
2014,08,10,14,20,24.40
2014,08,10,14,21,24.40
2014,08,10,14,22,24.40
2014,08,10,14,23,24.50
2014,08,10,14,24,24.50
2014,08,10,14,25,24.40
2014,08,10,14,26,24.40
2014,08,10,14,27,24.50
2014,08,10,14,28,24.50
2014,08,10,14,29,24.50
2014,08,10,14,30,24.50
2014,08,10,14,31,24.60
2014,08,10,14,32,24.60
2014,08,10,14,33,24.70
2014,08,10,14,34,24.70
2014,08,10,14,35,24.50
2014,08,10,14,36,24.40
2014,08,10,14,37,24.40
2014,08,10,14,38,24.40
2014,08,10,14,39,24.30
2014,08,10,14,40,24.20
2014,08,10,14,41,24.10
2014,08,10,14,42,24.10
2014,08,10,14,43,24.00
2014,08,10,14,44,23.90
2014,08,10,14,45,23.80
2014,08,10,14,46,23.80
2014,08,10,14,47,23.80
2014,08,10,14,48,23.80
2014,08,10,14,49,23.70
2014,08,10,14,50,23.60
2014,08,10,14,51,23.60
2014,08,10,14,52,23.60
2014,08,10,14,53,23.60
2014,08,10,14,54,23.60
2014,08,10,14,55,23.80
2014,08,10,14,56,23.90
2014,08,10,14,57,23.90
2014,08,10,14,58,24.00
2014,08,10,14,59,24.10
2014,08,10,15,00,24.10
2014,08,10,15,01,24.10
2014,08,10,15,02,24.30
2014,08,10,15,03,24.30
2014,08,10,15,04,24.30
2014,08,10,15,05,24.30
2014,08,10,15,06,24.30
2014,08,10,15,07,24.40
2014,08,10,15,08,24.50
2014,08,10,15,09,24.60
2014,08,10,15,10,24.60
2014,08,10,15,11,24.50
2014,08,10,15,12,24.50
2014,08,10,15,13,24.50
2014,08,10,15,14,24.50
2014,08,10,15,15,24.50
2014,08,10,15,16,24.50
2014,08,10,15,17,24.50
2014,08,10,15,18,24.50
2014,08,10,15,19,24.50
2014,08,10,15,20,24.60
2014,08,10,15,21,24.60
2014,08,10,15,22,24.60
2014,08,10,15,23,24.60
2014,08,10,15,24,24.50
2014,08,10,15,25,24.60
2014,08,10,15,26,24.60
2014,08,10,15,27,24.50
2014,08,10,15,28,24.50
2014,08,10,15,29,24.50
2014,08,10,15,30,24.40
2014,08,10,15,31,24.40
2014,08,10,15,32,24.30
2014,08,10,15,33,24.30
2014,08,10,15,34,24.20
2014,08,10,15,35,24.30
2014,08,10,15,36,24.30
2014,08,10,15,37,24.30
2014,08,10,15,38,24.30
2014,08,10,15,39,24.30
2014,08,10,15,40,24.30
2014,08,10,15,41,24.40
2014,08,10,15,42,24.40
2014,08,10,15,43,24.50
2014,08,10,15,44,24.60
2014,08,10,15,45,24.60
2014,08,10,15,46,24.50
2014,08,10,15,47,24.50
2014,08,10,15,48,24.40
2014,08,10,15,49,24.30
2014,08,10,15,50,24.30
2014,08,10,15,51,24.30
2014,08,10,15,52,24.20
2014,08,10,15,53,24.10
2014,08,10,15,54,24.10
2014,08,10,15,55,24.00
2014,08,10,15,56,23.90
2014,08,10,15,57,23.90
2014,08,10,15,58,24.00
2014,08,10,15,59,24.00
2014,08,10,16,00,24.00
2014,08,10,16,01,24.00
2014,08,10,16,02,23.90
2014,08,10,16,03,24.00
2014,08,10,16,04,24.10
2014,08,10,16,05,24.10
2014,08,10,16,06,24.10
2014,08,10,16,07,24.00
2014,08,10,16,08,23.90
2014,08,10,16,09,23.70
2014,08,10,16,10,23.60
2014,08,10,16,11,23.50
2014,08,10,16,12,23.40
2014,08,10,16,13,23.40
2014,08,10,16,14,23.30
2014,08,10,16,15,23.30
2014,08,10,16,16,23.30
2014,08,10,16,17,23.30
2014,08,10,16,18,23.30
2014,08,10,16,19,23.40
2014,08,10,16,20,23.40
2014,08,10,16,21,23.30
2014,08,10,16,22,23.30
2014,08,10,16,23,23.30
2014,08,10,16,24,23.30
2014,08,10,16,25,23.30
2014,08,10,16,26,23.30
2014,08,10,16,27,23.30
2014,08,10,16,28,23.40
2014,08,10,16,29,23.50
2014,08,10,16,30,23.60
2014,08,10,16,31,23.60
2014,08,10,16,32,23.70
2014,08,10,16,33,23.70
2014,08,10,16,34,23.70
2014,08,10,16,35,23.70
2014,08,10,16,36,23.70
2014,08,10,16,37,23.70
2014,08,10,16,38,23.80
2014,08,10,16,39,23.90
2014,08,10,16,40,24.00
2014,08,10,16,41,24.10
2014,08,10,16,42,24.10
2014,08,10,16,43,24.20
2014,08,10,16,44,24.20
2014,08,10,16,45,24.20
2014,08,10,16,46,24.30
2014,08,10,16,47,24.30
2014,08,10,16,48,24.20
2014,08,10,16,49,24.20
2014,08,10,16,50,24.10
2014,08,10,16,51,24.10
2014,08,10,16,52,24.10
2014,08,10,16,53,24.10
2014,08,10,16,54,24.10
2014,08,10,16,55,24.10
2014,08,10,16,56,23.90
2014,08,10,16,57,23.70
2014,08,10,16,58,23.50
2014,08,10,16,59,23.40
2014,08,10,17,00,23.30
2014,08,10,17,01,23.30
2014,08,10,17,02,23.20
2014,08,10,17,03,23.20
2014,08,10,17,04,23.10
2014,08,10,17,05,23.10
2014,08,10,17,06,23.10
2014,08,10,17,07,23.20
2014,08,10,17,08,23.30
2014,08,10,17,09,23.30
2014,08,10,17,10,23.40
2014,08,10,17,11,23.50
2014,08,10,17,12,23.60
2014,08,10,17,13,23.60
2014,08,10,17,14,23.70
2014,08,10,17,15,23.60
2014,08,10,17,16,23.50
2014,08,10,17,17,23.40
2014,08,10,17,18,23.30
2014,08,10,17,19,23.30
2014,08,10,17,20,23.30
2014,08,10,17,21,23.30
2014,08,10,17,22,23.20
2014,08,10,17,23,23.20
2014,08,10,17,24,23.20
2014,08,10,17,25,23.10
2014,08,10,17,26,23.00
2014,08,10,17,27,22.90
2014,08,10,17,28,22.90
2014,08,10,17,29,22.80
2014,08,10,17,30,22.80
2014,08,10,17,31,22.90
2014,08,10,17,32,22.90
2014,08,10,17,33,22.90
2014,08,10,17,34,22.90
2014,08,10,17,35,22.90
2014,08,10,17,36,22.90
2014,08,10,17,37,22.80
2014,08,10,17,38,22.80
2014,08,10,17,39,22.70
2014,08,10,17,40,22.60
2014,08,10,17,41,22.60
2014,08,10,17,42,22.50
2014,08,10,17,43,22.30
2014,08,10,17,44,22.30
2014,08,10,17,45,22.30
2014,08,10,17,46,22.30
2014,08,10,17,47,22.30
2014,08,10,17,48,22.30
2014,08,10,17,49,22.40
2014,08,10,17,50,22.50
2014,08,10,17,51,22.50
2014,08,10,17,52,22.60
2014,08,10,17,53,22.70
2014,08,10,17,54,22.80
2014,08,10,17,55,22.80
2014,08,10,17,56,22.90
2014,08,10,17,57,22.90
2014,08,10,17,58,23.00
2014,08,10,17,59,23.10
2014,08,10,18,00,23.20
2014,08,10,18,01,23.20
2014,08,10,18,02,23.20
2014,08,10,18,03,23.20
2014,08,10,18,04,23.20
2014,08,10,18,05,23.20
2014,08,10,18,06,23.20
2014,08,10,18,07,23.10
2014,08,10,18,08,23.00
2014,08,10,18,09,22.90
2014,08,10,18,10,22.90
2014,08,10,18,11,22.80
2014,08,10,18,12,22.60
2014,08,10,18,13,22.50
2014,08,10,18,14,22.40
2014,08,10,18,15,22.30
2014,08,10,18,16,22.20
2014,08,10,18,17,22.20
2014,08,10,18,18,22.20
2014,08,10,18,19,22.20
2014,08,10,18,20,22.30
2014,08,10,18,21,22.50
2014,08,10,18,22,22.60
2014,08,10,18,23,22.60
2014,08,10,18,24,22.70
2014,08,10,18,25,22.80
2014,08,10,18,26,22.90
2014,08,10,18,27,22.90
2014,08,10,18,28,22.90
2014,08,10,18,29,23.00
2014,08,10,18,30,23.10
2014,08,10,18,31,23.20
2014,08,10,18,32,23.30
2014,08,10,18,33,23.30
2014,08,10,18,34,23.30
2014,08,10,18,35,23.30
2014,08,10,18,36,23.40
2014,08,10,18,37,23.50
2014,08,10,18,38,23.60
2014,08,10,18,39,23.70
2014,08,10,18,40,23.70
2014,08,10,18,41,23.60
2014,08,10,18,42,23.60
2014,08,10,18,43,23.60
2014,08,10,18,44,23.60
2014,08,10,18,45,23.60
2014,08,10,18,46,23.60
2014,08,10,18,47,23.60
2014,08,10,18,48,23.60
2014,08,10,18,49,23.50
2014,08,10,18,50,23.40
2014,08,10,18,51,23.40
2014,08,10,18,52,23.30
2014,08,10,18,53,23.30
2014,08,10,18,54,23.30
2014,08,10,18,55,23.40
2014,08,10,18,56,23.40
2014,08,10,18,57,23.50
2014,08,10,18,58,23.60
2014,08,10,18,59,23.70
2014,08,10,19,00,23.70
2014,08,10,19,01,23.70
2014,08,10,19,02,23.70
2014,08,10,19,03,23.70
2014,08,10,19,04,23.70
2014,08,10,19,05,23.70
2014,08,10,19,06,23.60
2014,08,10,19,07,23.50
2014,08,10,19,08,23.40
2014,08,10,19,09,23.30
2014,08,10,19,10,23.20
2014,08,10,19,11,23.10
2014,08,10,19,12,22.90
2014,08,10,19,13,22.80
2014,08,10,19,14,22.70
2014,08,10,19,15,22.60
2014,08,10,19,16,22.50
2014,08,10,19,17,22.40
2014,08,10,19,18,22.40
2014,08,10,19,19,22.40
2014,08,10,19,20,22.40
2014,08,10,19,21,22.40
2014,08,10,19,22,22.40
2014,08,10,19,23,22.40
2014,08,10,19,24,22.40
2014,08,10,19,25,22.40
2014,08,10,19,26,22.50
2014,08,10,19,27,22.40
2014,08,10,19,28,22.40
2014,08,10,19,29,22.40
2014,08,10,19,30,22.30
2014,08,10,19,31,22.30
2014,08,10,19,32,22.30
2014,08,10,19,33,22.20
2014,08,10,19,34,22.20
2014,08,10,19,35,22.10
2014,08,10,19,36,22.10
2014,08,10,19,37,22.10
2014,08,10,19,38,22.10
2014,08,10,19,39,22.10
2014,08,10,19,40,22.10
2014,08,10,19,41,22.10
2014,08,10,19,42,22.10
2014,08,10,19,43,22.10
2014,08,10,19,44,22.10
2014,08,10,19,45,22.20
2014,08,10,19,46,22.20
2014,08,10,19,47,22.20
2014,08,10,19,48,22.20
2014,08,10,19,49,22.30
2014,08,10,19,50,22.30
2014,08,10,19,51,22.30
2014,08,10,19,52,22.30
2014,08,10,19,53,22.30
2014,08,10,19,54,22.40
2014,08,10,19,55,22.40
2014,08,10,19,56,22.40
2014,08,10,19,57,22.40
2014,08,10,19,58,22.40
2014,08,10,19,59,22.40
2014,08,10,20,00,22.40
2014,08,10,20,01,22.40
2014,08,10,20,02,22.40
2014,08,10,20,03,22.40
2014,08,10,20,04,22.40
2014,08,10,20,05,22.40
2014,08,10,20,06,22.30
2014,08,10,20,07,22.30
2014,08,10,20,08,22.30
2014,08,10,20,09,22.20
2014,08,10,20,10,22.20
2014,08,10,20,11,22.10
2014,08,10,20,12,22.00
2014,08,10,20,13,21.80
2014,08,10,20,14,21.60
2014,08,10,20,15,21.50
2014,08,10,20,16,21.40
2014,08,10,20,17,21.30
2014,08,10,20,18,21.20
2014,08,10,20,19,21.10
2014,08,10,20,20,21.00
2014,08,10,20,21,20.80
2014,08,10,20,22,20.70
2014,08,10,20,23,20.50
2014,08,10,20,24,20.30
2014,08,10,20,25,20.10
2014,08,10,20,26,20.00
2014,08,10,20,27,19.80
2014,08,10,20,28,19.60
2014,08,10,20,29,19.50
2014,08,10,20,30,19.30
2014,08,10,20,31,19.20
2014,08,10,20,32,19.10
2014,08,10,20,33,19.00
2014,08,10,20,34,18.90
2014,08,10,20,35,18.80
2014,08,10,20,36,18.60
2014,08,10,20,37,18.50
2014,08,10,20,38,18.30
2014,08,10,20,39,18.10
2014,08,10,20,40,18.00
2014,08,10,20,41,17.80
2014,08,10,20,42,17.70
2014,08,10,20,43,17.50
2014,08,10,20,44,17.40
2014,08,10,20,45,17.20
2014,08,10,20,46,17.10
2014,08,10,20,47,17.00
2014,08,10,20,48,16.90
2014,08,10,20,49,16.80
2014,08,10,20,50,16.80
2014,08,10,20,51,16.80
2014,08,10,20,52,16.80
2014,08,10,20,53,16.80
2014,08,10,20,54,16.80
2014,08,10,20,55,16.80
2014,08,10,20,56,16.80
2014,08,10,20,57,16.80
2014,08,10,20,58,16.80
2014,08,10,20,59,16.80
